FW7008 Weather Reports


time (UTC)temp
F
wind
direction
speed
knots
gust
knots
rain 1hr
in
rain 24hr
in
rain mn
in
humidity
%
barometer
mb
20260510223932 69 221 6.1 8.7 0.00 0.00 0.00 79 1013.9
20260510223430 69 247 6.1 9.6 0.00 0.00 0.00 79 1013.9
20260510222927 69 207 4.3 5.2 0.00 0.00 0.00 78 1013.9
20260510222425 69 240 2.6 4.3 0.00 0.00 0.00 78 1013.9
20260510221920 69 226 7.8 8.7 0.00 0.00 0.00 79 1013.5
20260510221417 68 279 4.3 8.7 0.00 0.00 0.00 81 1013.9
20260510220913 69 256 6.1 7.8 0.00 0.00 0.00 79 1014.2
20260510220409 70 257 6.1 8.7 0.00 0.00 0.00 77 1013.9
20260510215905 69 235 0.9 1.7 0.00 0.00 0.00 78 1014.2
20260510215403 70 258 0.0 0.0 0.00 0.00 0.00 77 1013.9
20260510214901 70 240 9.6 11.3 0.00 0.00 0.00 77 1014.2
20260510214358 70 232 7.0 7.8 0.00 0.00 0.00 78 1013.9
20260510213854 68 245 6.1 7.0 0.00 0.00 0.00 79 1014.2
20260510213350 68 159 6.1 7.8 0.00 0.00 0.00 82 1014.2
20260510212847 70 238 7.8 8.7 0.00 0.00 0.00 77 1013.9
20260510212344 71 263 7.0 8.7 0.00 0.00 0.00 78 1014.2
20260510211841 69 236 6.1 8.7 0.00 0.00 0.00 78 1013.9
20260510211337 69 205 2.6 2.6 0.00 0.00 0.00 79 1014.6
20260510210833 69 250 6.1 9.6 0.00 0.00 0.00 79 1013.9
20260510210328 69 251 4.3 7.0 0.00 0.00 0.00 78 1014.2
20260510205828 69 235 5.2 8.7 0.00 0.00 0.00 79 1014.2
20260510205323 69 266 7.0 7.8 0.00 0.00 0.00 77 1014.2
20260510204819 68 261 8.7 13.0 0.00 0.00 0.00 79 1014.2
20260510204316 69 286 10.4 12.2 0.00 0.00 0.00 80 1014.6
20260510203813 70 209 6.1 7.8 0.00 0.00 0.00 79 1014.2
20260510203310 70 274 5.2 8.7 0.00 0.00 0.00 77 1014.6
20260510202810 68 225 5.2 9.6 0.00 0.00 0.00 79 1014.2
20260510202306 69 237 6.1 7.8 0.00 0.00 0.00 78 1014.2
20260510201803 70 245 7.8 9.6 0.00 0.00 0.00 77 1014.2
20260510201300 70 245 7.0 8.7 0.00 0.00 0.00 76 1014.6
20260510200756 70 220 6.1 7.8 0.00 0.00 0.00 76 1014.2
20260510200254 70 268 4.3 7.0 0.00 0.00 0.00 76 1014.6
20260510195750 69 280 7.0 9.6 0.00 0.00 0.00 77 1014.6
20260510195247 69 244 7.8 8.7 0.00 0.00 0.00 76 1014.2
20260510194746 69 242 7.8 8.7 0.00 0.00 0.00 78 1014.6
20260510194244 71 277 9.6 12.2 0.00 0.00 0.00 75 1014.6
20260510193739 69 238 0.0 0.9 0.00 0.00 0.00 78 1014.6
20260510193234 69 278 2.6 7.8 0.00 0.00 0.00 78 1014.6
20260510192730 70 184 3.5 7.8 0.00 0.00 0.00 77 1014.6
20260510192226 72 228 3.5 6.1 0.00 0.00 0.00 74 1014.2
20260510191722 71 244 5.2 7.0 0.00 0.00 0.00 76 1014.6
20260510191218 70 255 3.5 4.3 0.00 0.00 0.00 76 1014.6
20260510190716 69 237 5.2 6.1 0.00 0.00 0.00 77 1014.6
20260510190213 70 266 6.1 8.7 0.00 0.00 0.00 76 1014.6
20260510185710 70 272 5.2 7.0 0.00 0.00 0.00 77 1014.2
20260510185208 71 236 6.1 7.8 0.00 0.00 0.00 75 1014.6
20260510184704 71 246 0.0 0.0 0.00 0.00 0.00 76 1014.6
20260510184201 70 233 1.7 4.3 0.00 0.00 0.00 76 1014.6
20260510183656 70 253 6.1 7.0 0.00 0.00 0.00 76 1014.6
20260510183150 70 277 7.8 8.7 0.00 0.00 0.00 77 1014.6
20260510182647 70 239 6.1 7.8 0.00 0.00 0.00 77 1014.6
20260510182143 70 252 6.1 7.8 0.00 0.00 0.00 77 1014.6
20260510181640 70 243 3.5 5.2 0.00 0.00 0.00 76 1014.6
20260510181137 71 275 2.6 4.3 0.00 0.00 0.00 75 1014.6
20260510180633 71 250 4.3 6.1 0.00 0.00 0.00 74 1014.6
20260510180131 71 244 1.7 1.7 0.00 0.00 0.00 75 1014.6
20260510175627 71 206 3.5 4.3 0.00 0.00 0.00 74 1014.6
20260510175122 71 278 0.0 0.0 0.00 0.00 0.00 75 1014.2
20260510174620 71 287 0.0 0.0 0.00 0.00 0.00 76 1014.6
20260510174117 71 216 0.0 0.0 0.00 0.00 0.00 75 1014.6
20260510173613 71 235 0.0 0.0 0.00 0.00 0.00 75 1014.6
20260510173110 71 235 0.0 0.0 0.00 0.00 0.00 76 1014.2
20260510172605 70 172 0.0 0.0 0.00 0.00 0.00 76 1014.2
20260510172102 71 232 0.0 0.0 0.00 0.00 0.00 76 1014.2
20260510171558 70 225 0.0 0.0 0.00 0.00 0.00 76 1014.2
20260510171056 71 357 0.0 0.0 0.00 0.00 0.00 74 1014.2
20260510170552 70 17 0.0 0.0 0.00 0.00 0.00 76 1014.2
20260510170049 69 359 0.0 0.0 0.00 0.00 0.00 78 1014.2
20260510165545 68 296 0.0 0.0 0.00 0.00 0.00 80 1014.2
20260510165041 68 176 0.0 0.0 0.00 0.00 0.00 79 1013.9
20260510164538 68 272 0.0 0.0 0.00 0.00 0.00 79 1014.2
20260510164035 68 94 0.0 0.0 0.00 0.00 0.00 80 1014.2
20260510163530 67 61 0.0 0.0 0.00 0.00 0.00 82 1014.2
20260510163026 67 146 0.0 0.0 0.00 0.00 0.00 82 1014.2
20260510162521 67 280 0.0 0.0 0.00 0.00 0.00 81 1014.2
20260510162013 67 70 0.0 0.0 0.00 0.00 0.00 82 1014.2
20260510161509 66 240 0.0 0.0 0.00 0.00 0.00 83 1014.2
20260510161006 66 229 0.0 0.0 0.00 0.00 0.00 84 1014.2
20260510160503 66 97 0.0 0.0 0.00 0.00 0.00 85 1014.2
20260510160002 65 141 0.0 0.0 0.00 0.00 0.00 85 1014.2
20260510155459 66 125 0.0 0.0 0.00 0.00 0.00 85 1014.2
20260510154955 65 23 0.0 0.0 0.00 0.00 0.00 85 1013.9
20260510154451 64 358 0.0 0.0 0.00 0.00 0.00 86 1014.2
20260510153950 64 9 0.0 0.0 0.00 0.00 0.00 86 1014.2
20260510153446 64 37 0.0 0.0 0.00 0.00 0.00 87 1014.2
20260510152942 64 347 0.0 0.0 0.00 0.00 0.00 87 1014.2
20260510152435 64 313 0.0 0.0 0.00 0.00 0.00 88 1014.2
20260510151931 64 291 0.0 0.0 0.00 0.00 0.00 88 1013.9
20260510151428 63 4 0.0 0.0 0.00 0.00 0.00 89 1014.2
20260510150924 63 14 0.0 0.0 0.00 0.00 0.00 89 1014.6
20260510150420 63 42 0.0 0.0 0.00 0.00 0.00 89 1014.2
20260510145916 63 358 0.0 0.0 0.00 0.00 0.00 89 1014.2
20260510145412 63 86 0.0 0.0 0.00 0.00 0.00 90 1014.2
20260510144909 63 89 0.0 0.0 0.00 0.00 0.00 90 1013.9
20260510144406 62 88 0.0 0.0 0.00 0.00 0.00 91 1014.2
20260510143901 62 131 0.0 0.0 0.00 0.00 0.00 91 1013.9
20260510143357 62 71 0.0 0.0 0.00 0.00 0.00 91 1013.9
20260510142854 62 51 0.0 0.0 0.00 0.00 0.00 92 1013.5
20260510142351 62 24 0.0 0.0 0.00 0.00 0.00 92 1013.9
20260510141847 62 43 0.0 0.0 0.00 0.00 0.00 92 1013.9
20260510141345 62 42 0.0 0.0 0.00 0.00 0.00 92 1013.9
20260510140842 61 13 0.0 0.0 0.00 0.00 0.00 92 1013.9
20260510140338 61 27 0.0 0.0 0.00 0.00 0.00 93 1013.9
20260510135837 61 37 0.0 0.0 0.00 0.00 0.00 93 1013.9
20260510135333 61 28 0.0 0.0 0.00 0.00 0.00 93 1013.5
20260510134831 61 16 0.0 0.0 0.00 0.00 0.00 93 1013.9
20260510134328 61 50 0.0 0.0 0.00 0.00 0.00 94 1013.9
20260510133824 61 36 0.0 0.0 0.00 0.00 0.00 94 1013.9
20260510133320 61 18 0.0 0.0 0.00 0.00 0.00 94 1013.5
20260510132815 61 36 0.0 0.0 0.00 0.00 0.00 94 1013.5
20260510132314 61 45 0.0 0.0 0.00 0.00 0.00 94 1013.5
20260510131810 61 23 0.0 0.0 0.00 0.00 0.00 94 1013.9
20260510131308 61 23 0.0 0.0 0.00 0.00 0.00 94 1013.5
20260510130805 60 31 0.0 0.0 0.00 0.00 0.00 94 1013.5
20260510130302 60 54 0.0 0.0 0.00 0.00 0.00 94 1013.5
20260510125758 60 66 0.0 0.0 0.00 0.00 0.00 94 1013.5
20260510125254 60 61 0.0 0.0 0.00 0.00 0.00 95 1013.5
20260510124751 60 18 0.0 0.0 0.00 0.00 0.00 95 1013.5
20260510124248 60 32 0.0 0.0 0.00 0.00 0.00 95 1013.5
20260510123743 60 47 0.0 0.0 0.00 0.00 0.00 95 1013.5
20260510123240 60 57 0.0 0.0 0.00 0.00 0.00 95 1013.5
20260510122736 60 57 0.0 0.0 0.00 0.00 0.00 96 1013.5
20260510122232 60 57 0.0 0.0 0.00 0.00 0.00 96 1013.5
20260510121729 60 57 0.0 0.0 0.00 0.00 0.00 96 1013.5
20260510121226 60 57 0.0 0.0 0.00 0.00 0.00 96 1013.5
20260510120724 60 66 0.0 0.0 0.00 0.00 0.00 96 1013.5
20260510120220 60 69 0.0 0.0 0.00 0.00 0.00 96 1013.2
20260510115715 60 121 0.0 0.0 0.00 0.00 0.00 96 1013.5
20260510115214 60 112 0.0 0.0 0.00 0.00 0.00 96 1013.5
20260510114709 60 113 0.0 0.0 0.00 0.00 0.00 96 1013.5
20260510114206 60 83 0.0 0.0 0.00 0.00 0.00 96 1013.2
20260510113701 60 105 0.0 0.0 0.00 0.00 0.00 97 1013.5
20260510113158 60 68 0.0 0.0 0.00 0.00 0.00 97 1013.5
20260510112655 60 75 0.0 0.0 0.00 0.00 0.00 97 1013.9
20260510112152 60 79 0.0 0.0 0.00 0.00 0.00 97 1013.5
20260510111648 60 68 0.0 0.0 0.00 0.00 0.00 97 1013.5
20260510111144 60 69 0.0 0.0 0.00 0.00 0.00 97 1013.5
20260510110639 59 80 0.0 0.0 0.00 0.00 0.00 97 1013.2
20260510110137 59 66 0.0 0.0 0.00 0.00 0.00 98 1013.5
20260510105632 59 64 0.0 0.0 0.00 0.00 0.00 98 1013.5
20260510105126 59 77 0.0 0.0 0.00 0.00 0.00 99 1013.5
20260510104624 59 84 0.0 0.0 0.00 0.00 0.00 99 1013.5
20260510104121 59 73 0.0 0.0 0.00 0.00 0.00 99 1013.5
20260510103617 60 100 0.0 0.0 0.00 0.00 0.00 99 1013.5
20260510103113 60 88 0.0 0.0 0.00 0.00 0.00 98 1013.5
20260510102609 60 80 0.0 0.0 0.00 0.00 0.00 98 1013.5
20260510102105 60 66 0.0 0.0 0.00 0.00 0.00 98 1013.5
20260510101603 60 81 0.0 0.0 0.00 0.00 0.00 98 1013.5
20260510101101 60 77 0.0 0.0 0.00 0.00 0.00 98 1013.5
20260510100556 60 61 0.0 0.0 0.00 0.00 0.00 98 1013.5
20260510100054 60 83 0.0 0.0 0.00 0.00 0.00 98 1013.5
20260510095550 60 86 0.0 0.0 0.00 0.00 0.00 97 1013.5
20260510095049 60 84 0.0 0.0 0.00 0.00 0.00 97 1013.9
20260510094544 60 95 0.0 0.0 0.00 0.00 0.00 97 1013.5
20260510094040 61 86 0.0 0.0 0.00 0.00 0.00 97 1013.5
20260510093536 61 144 0.0 0.0 0.00 0.00 0.00 97 1013.9
20260510093033 61 78 0.0 0.0 0.00 0.00 0.00 97 1013.2
20260510092530 61 95 0.0 0.0 0.00 0.00 0.00 97 1013.5
20260510092030 61 78 0.0 0.0 0.00 0.00 0.00 96 1013.5
20260510091527 61 84 0.0 0.0 0.00 0.00 0.00 96 1013.2
20260510091022 61 153 0.0 0.0 0.00 0.00 0.00 96 1013.5
20260510090519 61 81 0.0 0.0 0.00 0.00 0.00 96 1013.5
20260510090015 61 95 0.0 0.0 0.00 0.00 0.00 96 1013.2
20260510085510 61 58 0.0 0.0 0.00 0.00 0.00 96 1013.5
20260510085006 61 77 0.0 0.0 0.00 0.00 0.00 96 1013.5
20260510084503 61 65 0.0 0.0 0.00 0.00 0.00 96 1013.5
20260510084000 61 64 0.0 0.0 0.00 0.00 0.00 96 1013.9
20260510083456 61 32 0.0 0.0 0.00 0.00 0.00 96 1013.5
20260510082951 61 2 0.0 0.0 0.00 0.00 0.00 96 1013.5
20260510082450 61 82 0.0 0.0 0.00 0.00 0.00 96 1013.5
20260510081949 61 29 0.0 0.0 0.00 0.00 0.00 97 1013.9
20260510081445 61 30 0.0 0.0 0.00 0.00 0.00 97 1013.9
20260510080941 61 14 0.0 0.0 0.00 0.00 0.00 97 1013.5
20260510080439 61 14 0.0 0.0 0.00 0.00 0.00 97 1013.9
20260510075937 61 25 0.0 0.0 0.00 0.00 0.00 97 1013.9
20260510075435 61 27 0.0 0.0 0.00 0.00 0.00 97 1013.9
20260510074931 61 59 0.0 0.0 0.00 0.00 0.00 97 1013.9
20260510074428 61 64 0.0 0.0 0.00 0.00 0.00 97 1013.9
20260510073925 61 54 0.0 0.0 0.00 0.00 0.00 98 1013.9
20260510073420 61 49 0.0 0.0 0.00 0.00 0.00 97 1013.9
20260510072917 61 49 0.0 0.0 0.00 0.00 0.00 98 1013.9
20260510072414 61 56 0.0 0.0 0.00 0.00 0.00 98 1013.9
20260510071909 61 80 0.0 0.0 0.00 0.00 0.00 98 1014.2
20260510071406 61 91 0.0 0.0 0.00 0.00 0.00 98 1014.2
20260510070905 60 100 0.0 0.0 0.00 0.00 0.00 98 1013.9
20260510070401 60 120 0.0 0.0 0.00 0.00 0.00 98 1013.9
20260510065856 60 47 0.0 0.0 0.00 0.00 0.00 98 1013.9
20260510065353 60 89 0.0 0.0 0.00 0.00 0.00 99 1014.2
20260510064850 60 134 0.0 0.0 0.00 0.00 0.00 99 1014.2
20260510064348 60 95 0.0 0.0 0.00 0.00 0.00 99 1014.2
20260510063844 60 146 0.0 0.0 0.00 0.00 0.00 99 1014.2
20260510063340 60 59 0.0 0.0 0.00 0.00 0.00 99 1013.9
20260510062837 60 59 0.0 0.0 0.00 0.00 0.00 99 1013.9
20260510062332 60 300 0.0 0.0 0.00 0.00 0.00 99 1013.9
20260510061828 60 323 0.0 0.0 0.00 0.00 0.00 99 1013.9
20260510061325 60 305 0.0 0.0 0.00 0.00 0.00 99 1014.2
20260510060821 60 300 0.0 0.0 0.00 0.00 0.00 99 1013.9
20260510060318 60 250 0.0 0.0 0.00 0.00 0.00 99 1014.2
20260510055815 59 287 0.0 0.0 0.00 0.00 0.00 99 1013.9
20260510055314 59 269 0.0 0.0 0.00 0.00 0.00 99 1013.9
20260510054813 59 250 0.0 0.0 0.00 0.00 0.00 99 1013.9
20260510054309 59 274 0.0 0.0 0.00 0.00 0.00 99 1014.2
20260510053804 59 246 0.0 0.0 0.00 0.00 0.00 99 1014.2
20260510053300 59 268 0.0 0.0 0.00 0.00 0.00 99 1014.2
20260510052756 59 277 0.0 0.0 0.00 0.00 0.00 99 1014.2
20260510052252 59 276 0.0 0.0 0.00 0.00 0.00 99 1013.9
20260510051748 59 248 0.0 0.0 0.00 0.00 0.00 99 1014.2
20260510051245 59 197 0.0 0.0 0.00 0.00 0.00 99 1013.9
20260510050742 59 284 0.0 0.0 0.00 0.00 0.00 99 1013.9
20260510050239 59 266 0.0 0.0 0.00 0.00 0.00 99 1013.9
20260510045736 59 257 0.0 0.0 0.00 0.00 0.00 99 1014.2
20260510045232 59 236 0.0 0.0 0.00 0.00 0.00 99 1014.2
20260510044728 59 240 1.7 2.6 0.00 0.00 0.00 99 1014.2
20260510044227 59 264 0.0 0.0 0.00 0.00 0.00 99 1013.9
20260510043721 59 235 0.0 0.0 0.00 0.00 0.00 99 1013.9
20260510043219 59 218 0.0 0.0 0.00 0.00 0.00 99 1013.9
20260510042716 60 237 0.0 0.0 0.00 0.00 0.00 99 1014.2
20260510042212 59 238 0.0 0.0 0.00 0.00 0.00 99 1013.9
20260510041709 59 252 0.0 0.0 0.00 0.00 0.00 99 1013.9
20260510041206 60 218 0.0 0.0 0.00 0.00 0.00 99 1013.9
20260510040703 60 229 0.0 0.0 0.00 0.00 0.00 99 1013.9
20260510040200 60 244 0.0 0.0 0.00 0.00 0.00 99 1013.5
20260510035655 60 277 0.0 0.0 0.00 0.00 0.00 99 1013.9
20260510035151 60 238 0.0 0.0 0.00 0.00 0.00 99 1013.5
20260510034647 60 284 3.5 6.1 0.00 0.00 0.00 98 1013.5
20260510034145 60 244 0.0 0.0 0.00 0.00 0.00 98 1013.5
20260510033640 60 263 5.2 7.0 0.00 0.00 0.00 98 1013.2
20260510033133 60 266 0.0 0.0 0.00 0.00 0.00 98 1013.2
20260510032629 60 269 5.2 7.0 0.00 0.00 0.00 98 1013.2
20260510032125 60 248 3.5 5.2 0.00 0.00 0.00 98 1012.9
20260510031620 60 244 0.0 0.0 0.00 0.00 0.00 98 1013.2
20260510031116 60 246 6.1 7.8 0.00 0.00 0.00 98 1012.9
20260510030611 60 212 3.5 5.2 0.00 0.00 0.00 98 1013.2
20260510030109 60 268 0.0 0.0 0.00 0.00 0.00 97 1012.9
20260510025606 60 221 1.7 5.2 0.00 0.00 0.00 97 1012.9
20260510025104 60 178 0.9 5.2 0.00 0.00 0.00 98 1012.9
20260510024600 60 268 0.0 0.0 0.00 0.00 0.00 97 1012.9
20260510024056 60 240 0.0 1.7 0.00 0.00 0.00 97 1012.9
20260510023553 60 239 0.0 0.0 0.00 0.00 0.00 97 1012.5
20260510023051 61 241 4.3 5.2 0.00 0.00 0.00 96 1012.9
20260510022550 61 255 0.0 2.6 0.00 0.00 0.00 96 1012.9
20260510022044 61 223 4.3 7.8 0.00 0.00 0.00 96 1012.9
20260510021541 61 255 0.0 0.0 0.00 0.00 0.00 96 1012.5
20260510021038 61 239 9.6 9.6 0.00 0.00 0.00 96 1012.5
20260510020532 61 270 5.2 6.1 0.00 0.00 0.00 96 1012.9
20260510020028 61 228 0.0 0.0 0.00 0.00 0.00 95 1012.5
20260510015523 61 190 7.8 8.7 0.00 0.00 0.00 95 1012.5
20260510015020 62 230 9.6 13.0 0.00 0.00 0.00 94 1012.5
20260510014516 62 216 6.1 7.8 0.00 0.00 0.00 93 1012.5
20260510014014 62 268 6.1 7.0 0.00 0.00 0.00 92 1012.5
20260510013508 62 236 6.1 7.0 0.00 0.00 0.00 92 1012.2
20260510013005 62 267 5.2 7.0 0.00 0.00 0.00 92 1012.5
20260510012459 63 252 2.6 5.2 0.00 0.00 0.00 92 1012.5
20260510011955 63 200 4.3 7.8 0.00 0.00 0.00 91 1012.2
20260510011449 64 231 4.3 6.1 0.00 0.00 0.00 91 1012.2
20260510010946 64 225 5.2 7.0 0.00 0.00 0.00 90 1012.5
20260510010443 64 248 7.8 8.7 0.00 0.00 0.00 89 1012.2
20260510005940 64 241 5.2 7.0 0.00 0.00 0.00 90 1012.2
20260510005436 65 234 8.7 11.3 0.00 0.00 0.00 88 1012.2
20260510004933 64 248 1.7 7.0 0.00 0.00 0.00 89 1012.2
20260510004430 64 239 10.4 13.0 0.00 0.00 0.00 89 1012.2
20260510003929 65 215 8.7 11.3 0.00 0.00 0.00 88 1012.2
20260510003425 65 235 7.0 8.7 0.00 0.00 0.00 87 1012.2
20260510002924 65 250 8.7 8.7 0.00 0.00 0.00 88 1012.2
20260510002422 66 246 6.1 7.0 0.00 0.00 0.00 87 1012.5
20260510001918 65 253 6.1 8.7 0.00 0.00 0.00 88 1012.2
20260510001416 65 246 7.0 8.7 0.00 0.00 0.00 88 1012.2
20260510000913 66 235 6.1 7.0 0.00 0.00 0.00 87 1012.5
20260510000411 66 253 10.4 12.2 0.00 0.00 0.00 86 1012.5
20260509235905 66 244 4.3 7.0 0.00 0.00 0.00 85 1012.5
20260509235402 67 269 7.8 12.2 0.00 0.00 0.00 83 1012.5
20260509234858 67 226 7.8 11.3 0.00 0.00 0.00 83 1012.2
20260509234356 66 251 6.1 7.8 0.00 0.00 0.00 85 1012.2
20260509233854 68 238 7.8 9.6 0.00 0.00 0.00 83 1012.5
20260509233351 66 253 7.0 7.8 0.00 0.00 0.00 86 1012.2
20260509232846 68 257 7.8 12.2 0.00 0.00 0.00 82 1012.5
20260509232345 67 233 7.0 8.7 0.00 0.00 0.00 83 1012.5
20260509231840 67 236 6.1 7.0 0.00 0.00 0.00 83 1012.5
20260509231337 67 261 7.0 11.3 0.00 0.00 0.00 83 1012.5
20260509230835 68 147 3.5 4.3 0.00 0.00 0.00 82 1012.5
20260509230332 68 265 3.5 5.2 0.00 0.00 0.00 82 1012.2
20260509225827 68 232 6.1 11.3 0.00 0.00 0.00 83 1012.5
20260509225324 68 243 9.6 9.6 0.00 0.00 0.00 81 1012.5
20260509224820 68 232 7.8 8.7 0.00 0.00 0.00 82 1012.9
20260509224316 68 232 8.7 12.2 0.00 0.00 0.00 81 1012.5